Weather Service Report


249 
ASUS43 KFSD 281110
RWRFSD

WEATHER ROUNDUP FOR SE SOUTH DAKOTA/SW MINNESOTA/NW IOWA
NATIONAL WEATHER SERVICE SIOUX FALLS SD
600 AM CDT TUE JUN 28 2016

NOTE: "FAIR" INDICATES FEW OR NO CLOUDS BELOW 12,000 FEET WITH NO
SIGNIFICANT WEATHER AND OR OBSTRUCTIONS TO VISIBILITY.


SDZ038>040-050-052>070-281200-
SOUTHEAST SOUTH DAKOTA
  
CITY           SKY/WX    TMP DP  RH WIND       PRES   REMARKS
BROOKINGS      CLEAR     52  50  93 CALM      30.26R                  
CHAMBERLAIN    PTCLDY    61  58  90 NE5       30.27R                  
HURON          PTCLDY    55  53  93 CALM      30.26R                  
MADISON        FAIR      55  55 100 NE8       30.26R                  
MITCHELL       CLOUDY    60  57  89 N3        30.26S                  
SIOUX FALLS    PTCLDY    55  52  89 N5        30.25R                  
WINNER         FAIR      58  54  86 E5        30.26R                  
YANKTON        CLEAR     59  55  88 NE6       30.24R                  
$$

MNZ071-072-080-081-089-090-097-098-281200-
SOUTHWEST MINNESOTA
  
CITY           SKY/WX    TMP DP  RH WIND       PRES   REMARKS
FAIRMONT       PTCLDY    55  54  94 N5        30.23S                  
JACKSON        CLEAR     55  52  88 CALM      30.25S                  
LUVERNE        CLEAR     55  52  88 NE6       30.25S                  
MARSHALL       CLEAR     52  50  93 W6        30.27R                  
MONTEVIDEO     MOCLDY    54  50  87 CALM      30.28R                  
PIPESTONE      CLEAR     55  52  88 NE5       30.25S                  
REDWOOD FALLS  MOCLDY    58  54  86 N5        30.25R                  
TRACY          CLEAR     55  52  92 W3        30.26S                  
WINDOM         CLEAR     54  52  94 NW5       30.25R                  
WORTHINGTON    CLEAR     54  52  93 N6        30.26R                  
$$

IAZ001>003-012>014-020>022-031-032-NEZ013-014-SDZ071-281200-
NORTHWEST IOWA
  
CITY           SKY/WX    TMP DP  RH WIND       PRES   REMARKS
CHEROKEE       CLEAR     56  56 100 CALM      30.24R                  
DENISON        CLEAR     59  57  94 CALM      30.21S                  
ESTHERVILLE    CLEAR     54  53  97 NW5       30.23R                  
LE MARS        CLEAR     59  57  94 CALM      30.24S                  
ORANGE CITY    CLEAR     61  55  82 E3        30.24S                  
SHELDON        CLEAR     55  54  94 CALM      30.23S                  
SIOUX CITY     CLEAR     63  56  78 CALM      30.23R                  
SPENCER        CLEAR     56  53  90 NW3       30.24R                  
STORM LAKE     CLEAR     59  55  88 NE7       30.24S                  
$$
 
ABBREVIATIONS USED IN REMARKS
   TC - TEMPERATURE IN CELSIUS
  WCI - WIND CHILL INDEX
   HX - HEAT INDEX
  VSB - VISIBILITY

  


251 
ASUS43 KFSD 281110
RWRSD 

WEATHER ROUNDUP FOR SOUTH DAKOTA
NATIONAL WEATHER SERVICE SIOUX FALLS SD
600 AM CDT TUE JUN 28 2016

NOTE: "FAIR" INDICATES FEW OR NO CLOUDS BELOW 12,000 FEET WITH NO
SIGNIFICANT WEATHER AND/OR OBSTRUCTIONS TO VISIBILITY.


SDZ001>005-009-010-012>017-281200-
NORTHWEST AND NORTH CENTRAL SOUTH DAKOTA
  
CITY           SKY/WX    TMP DP  RH WIND       PRES   REMARKS
BUFFALO          N/A     55  50  83 NE7       30.20R                  
FAITH            N/A     59  53  80 E13       30.23F                  
MOBRIDGE       MOCLDY    61  52  72 E6        30.24S                  
$$
 
SDZ012>016-024>037-041>051-057-063-072>074-281200-
SOUTHWEST AND SOUTH CENTRAL SOUTH DAKOTA
  
CITY           SKY/WX    TMP DP  RH WIND       PRES   REMARKS
RAPID CTY ARPT PTCLDY    55  52  89 CALM      30.23R                  
PIERRE         CLOUDY    58  55  90 E6        30.24S                  
CUSTER         CLEAR     53  50  89 NW5       30.36S                  
ELLSWORTH AFB  CLEAR     58  53  84 N5        30.22S                  
PHILIP         CLEAR     58  55  90 E8        30.22F                  
PINE RIDGE     CLEAR     55  52  89 NE7       30.26R                  
WINNER         FAIR      58  54  86 E5        30.26R                  
$$
 
SDZ004>011-016>023-039-040-281200-
NORTHEAST SOUTH DAKOTA
  
CITY           SKY/WX    TMP DP  RH WIND       PRES   REMARKS
ABERDEEN       PTCLDY    53  48  83 CALM      30.27S                  
WATERTOWN      CLEAR     52  47  83 N3        30.27R                  
BROOKINGS      CLEAR     52  50  93 CALM      30.26R                  
SISSETON         N/A     46  43  89 CALM      30.26S                  
$$
 
SDZ017-020-022-023-036>040-048>070-281200-
SOUTHEAST SOUTH DAKOTA
  
CITY           SKY/WX    TMP DP  RH WIND       PRES   REMARKS
SIOUX FALLS    PTCLDY    55  52  89 N5        30.25R                  
HURON          PTCLDY    55  53  93 CALM      30.26R                  
CHAMBERLAIN    PTCLDY    61  58  90 NE5       30.27R                  
MITCHELL       CLOUDY    60  57  89 N3        30.26S                  
YANKTON        CLEAR     59  55  88 NE6       30.24R                  
$$
 
ABBREVIATIONS USED IN REMARKS
   TC - TEMPERATURE IN CELSIUS
  WCI - WIND CHILL INDEX
   HX - HEAT INDEX
  VSB - VISIBILITY

  

Return to Home page


Western Regional Climate Center, wrcc@dri.edu